| time (UTC) | temp F | wind direction | speed MPH | gust MPH | rain 1hr in | rain 24hr in | rain mn in | humidity % | barometer mb |
| 20260901044259 | 79 | 154 | 0.0 | 0.0 | 0.00 | 0.11 | 0.11 | 66 | 1017.3 |
| 20260901043754 | 80 | 154 | 0.0 | 0.0 | 0.00 | 0.11 | 0.11 | 64 | 1017.3 |
| 20260901043250 | 80 | 117 | 0.0 | 1.0 | 0.00 | 0.11 | 0.11 | 64 | 1017.1 |
| 20260901042749 | 80 | 126 | 0.0 | 0.0 | 0.00 | 0.11 | 0.11 | 64 | 1017.3 |
| 20260901042244 | 80 | 129 | 0.0 | 0.0 | 0.00 | 0.11 | 0.11 | 63 | 1017.2 |
| 20260901041740 | 80 | 104 | 0.0 | 1.0 | 0.00 | 0.11 | 0.11 | 64 | 1017.3 |
| 20260901041240 | 80 | 142 | 0.0 | 1.0 | 0.00 | 0.11 | 0.11 | 63 | 1017.3 |
| 20260901040729 | 80 | 135 | 0.0 | 1.0 | 0.00 | 0.11 | 0.11 | 63 | 1017.1 |
| 20260901040228 | 81 | 135 | 0.0 | 1.0 | 0.00 | 0.11 | 0.11 | 62 | 1017.2 |
| 20260901035726 | 81 | 230 | 2.0 | 2.0 | 0.00 | 0.11 | 0.11 | 61 | 1017.1 |
| 20260901035221 | 81 | 130 | 1.0 | 3.0 | 0.00 | 0.11 | 0.11 | 61 | 1017.0 |
| 20260901034719 | 81 | 163 | 0.0 | 2.0 | 0.00 | 0.11 | 0.11 | 61 | 1017.0 |
| 20260901034214 | 82 | 171 | 0.0 | 3.0 | 0.00 | 0.11 | 0.11 | 60 | 1017.0 |
| 20260901033714 | 82 | 146 | 1.0 | 2.0 | 0.00 | 0.11 | 0.11 | 60 | 1017.1 |
| 20260901033213 | 82 | 137 | 2.0 | 3.0 | 0.00 | 0.11 | 0.11 | 59 | 1017.1 |
| 20260901032712 | 82 | 206 | 1.0 | 3.0 | 0.00 | 0.11 | 0.11 | 59 | 1016.9 |
| 20260901032207 | 82 | 159 | 0.0 | 4.0 | 0.00 | 0.11 | 0.11 | 58 | 1016.8 |
| 20260901031657 | 83 | 146 | 0.0 | 4.0 | 0.00 | 0.11 | 0.11 | 58 | 1016.6 |
| 20260901031152 | 83 | 185 | 2.0 | 6.0 | 0.00 | 0.11 | 0.11 | 57 | 1016.6 |
| 20260901030652 | 83 | 246 | 0.0 | 5.0 | 0.00 | 0.11 | 0.11 | 56 | 1016.6 |
| 20260901030141 | 83 | 150 | 5.0 | 7.0 | 0.00 | 0.11 | 0.11 | 55 | 1016.5 |
| 20260901025635 | 83 | 218 | 0.0 | 4.0 | 0.00 | 0.11 | 0.11 | 55 | 1016.5 |
| 20260901025130 | 82 | 150 | 0.0 | 1.0 | 0.00 | 0.11 | 0.11 | 57 | 1016.5 |
| 20260901024624 | 82 | 230 | 0.0 | 0.0 | 0.00 | 0.11 | 0.11 | 58 | 1016.5 |
| 20260901024123 | 82 | 205 | 0.0 | 1.0 | 0.00 | 0.11 | 0.11 | 58 | 1016.3 |
| 20260901023622 | 83 | 75 | 0.0 | 0.0 | 0.00 | 0.11 | 0.11 | 57 | 1016.1 |
| 20260901023117 | 82 | 50 | 0.0 | 1.0 | 0.00 | 0.11 | 0.11 | 55 | 1016.0 |
| 20260901022612 | 82 | 130 | 0.0 | 0.0 | 0.00 | 0.11 | 0.11 | 55 | 1016.1 |
| 20260901022107 | 83 | 104 | 2.0 | 2.0 | 0.00 | 0.11 | 0.11 | 56 | 1016.1 |
| 20260901021603 | 83 | 191 | 0.0 | 0.0 | 0.00 | 0.11 | 0.11 | 55 | 1016.2 |
| 20260901021058 | 84 | 217 | 0.0 | 0.0 | 0.00 | 0.11 | 0.11 | 54 | 1016.1 |
| 20260901020554 | 84 | 142 | 0.0 | 2.0 | 0.00 | 0.11 | 0.11 | 53 | 1015.7 |
| 20260901020050 | 85 | 343 | 0.0 | 3.0 | 0.00 | 0.11 | 0.11 | 51 | 1015.7 |
| 20260901015545 | 85 | 356 | 2.0 | 2.0 | 0.00 | 0.11 | 0.11 | 51 | 1015.5 |
| 20260901015044 | 85 | 5 | 0.0 | 2.0 | 0.00 | 0.11 | 0.11 | 52 | 1015.4 |
| 20260901014540 | 84 | 67 | 1.0 | 2.0 | 0.00 | 0.11 | 0.11 | 51 | 1015.8 |
| 20260901014036 | 85 | 117 | 0.0 | 1.0 | 0.00 | 0.11 | 0.11 | 51 | 1015.5 |
| 20260901013532 | 85 | 104 | 0.0 | 2.0 | 0.00 | 0.11 | 0.11 | 51 | 1015.7 |
| 20260901013027 | 85 | 309 | 0.0 | 2.0 | 0.00 | 0.11 | 0.11 | 51 | 1015.5 |
| 20260901012526 | 85 | 44 | 0.0 | 3.0 | 0.00 | 0.11 | 0.11 | 51 | 1015.4 |
| 20260901012022 | 86 | 104 | 0.0 | 1.0 | 0.00 | 0.11 | 0.11 | 51 | 1015.3 |
| 20260901011519 | 86 | 352 | 0.0 | 2.0 | 0.00 | 0.11 | 0.11 | 50 | 1015.6 |
| 20260901011016 | 87 | 274 | 1.0 | 3.0 | 0.00 | 0.11 | 0.11 | 48 | 1015.7 |
| 20260901010511 | 88 | 199 | 0.0 | 5.0 | 0.00 | 0.11 | 0.11 | 47 | 1015.7 |
| 20260901010011 | 88 | 137 | 0.0 | 3.0 | 0.00 | 0.11 | 0.11 | 49 | 1015.6 |
| 20260901005505 | 87 | 79 | 3.0 | 4.0 | 0.00 | 0.11 | 0.11 | 47 | 1016.0 |
| 20260901005000 | 87 | 227 | 4.0 | 5.0 | 0.00 | 0.11 | 0.11 | 48 | 1015.7 |
| 20260901004500 | 88 | 217 | 3.0 | 4.0 | 0.00 | 0.11 | 0.11 | 46 | 1015.7 |
| 20260901003955 | 88 | 162 | 0.0 | 6.0 | 0.00 | 0.11 | 0.11 | 45 | 1015.8 |
| 20260901003450 | 88 | 207 | 6.0 | 8.0 | 0.00 | 0.11 | 0.11 | 44 | 1015.8 |
| 20260901002948 | 89 | 186 | 0.0 | 4.0 | 0.00 | 0.11 | 0.11 | 46 | 1016.0 |
| 20260901002448 | 89 | 237 | 2.0 | 3.0 | 0.00 | 0.11 | 0.11 | 45 | 1016.2 |
| 20260901001942 | 89 | 183 | 1.0 | 3.0 | 0.00 | 0.11 | 0.11 | 47 | 1015.8 |
| 20260901001438 | 89 | 284 | 0.0 | 5.0 | 0.00 | 0.11 | 0.11 | 46 | 1015.8 |
| 20260901000933 | 90 | 180 | 1.0 | 3.0 | 0.00 | 0.11 | 0.11 | 48 | 1015.7 |
| 20260901000428 | 89 | 197 | 1.0 | 4.0 | 0.00 | 0.11 | 0.11 | 47 | 1016.3 |
| 20260831235927 | 90 | 222 | 1.0 | 3.0 | 0.00 | 0.11 | 0.11 | 47 | 1016.2 |
| 20260831235423 | 88 | 71 | 5.0 | 6.0 | 0.00 | 0.11 | 0.11 | 49 | 1016.2 |
| 20260831234918 | 89 | 160 | 0.0 | 3.0 | 0.00 | 0.11 | 0.11 | 49 | 1016.3 |
| 20260831234417 | 89 | 255 | 0.0 | 2.0 | 0.00 | 0.11 | 0.11 | 47 | 1016.2 |
| 20260831233913 | 87 | 59 | 3.0 | 5.0 | 0.00 | 0.11 | 0.11 | 49 | 1016.4 |
| 20260831233408 | 87 | 71 | 2.0 | 6.0 | 0.00 | 0.11 | 0.11 | 50 | 1016.4 |
| 20260831232903 | 89 | 58 | 6.0 | 7.0 | 0.00 | 0.11 | 0.11 | 49 | 1016.4 |
| 20260831232359 | 88 | 54 | 2.0 | 6.0 | 0.00 | 0.11 | 0.11 | 50 | 1016.5 |
| 20260831231855 | 87 | 104 | 0.0 | 7.0 | 0.00 | 0.11 | 0.11 | 50 | 1016.5 |
| 20260831231351 | 87 | 68 | 6.0 | 9.0 | 0.00 | 0.11 | 0.11 | 50 | 1016.5 |
| 20260831230846 | 87 | 78 | 3.0 | 7.0 | 0.00 | 0.11 | 0.11 | 50 | 1016.5 |
| 20260831230341 | 89 | 164 | 2.0 | 4.0 | 0.00 | 0.11 | 0.11 | 48 | 1016.5 |
| 20260831225836 | 88 | 213 | 3.0 | 9.0 | 0.00 | 0.11 | 0.11 | 49 | 1016.6 |
| 20260831225331 | 88 | 137 | 2.0 | 7.0 | 0.00 | 0.11 | 0.11 | 50 | 1016.7 |
| 20260831224826 | 88 | 79 | 6.0 | 14.0 | 0.00 | 0.11 | 0.11 | 49 | 1016.8 |
| 20260831224321 | 88 | 183 | 2.0 | 6.0 | 0.00 | 0.11 | 0.11 | 49 | 1016.7 |
| 20260831223816 | 87 | 195 | 3.0 | 6.0 | 0.00 | 0.11 | 0.11 | 50 | 1016.9 |
| 20260831223312 | 88 | 193 | 3.0 | 7.0 | 0.00 | 0.11 | 0.11 | 50 | 1017.0 |
| 20260831222808 | 87 | 83 | 2.0 | 7.0 | 0.00 | 0.11 | 0.11 | 50 | 1016.9 |
| 20260831222306 | 87 | 45 | 2.0 | 4.0 | 0.00 | 0.11 | 0.11 | 50 | 1017.1 |
| 20260831221759 | 87 | 86 | 2.0 | 9.0 | 0.00 | 0.11 | 0.11 | 52 | 1017.2 |
| 20260831221254 | 88 | 163 | 3.0 | 7.0 | 0.00 | 0.11 | 0.11 | 50 | 1017.3 |
| 20260831220754 | 87 | 190 | 1.0 | 5.0 | 0.00 | 0.11 | 0.11 | 51 | 1017.4 |
| 20260831220249 | 86 | 104 | 4.0 | 8.0 | 0.00 | 0.11 | 0.11 | 54 | 1017.9 |
| 20260831215744 | 87 | 73 | 3.0 | 7.0 | 0.00 | 0.11 | 0.11 | 53 | 1017.9 |
| 20260831215241 | 87 | 194 | 2.0 | 9.0 | 0.00 | 0.11 | 0.11 | 53 | 1018.1 |
| 20260831214737 | 86 | 73 | 6.0 | 11.0 | 0.00 | 0.11 | 0.11 | 55 | 1018.2 |
| 20260831214234 | 87 | 104 | 2.0 | 11.0 | 0.00 | 0.11 | 0.11 | 54 | 1018.3 |
| 20260831213729 | 87 | 88 | 1.0 | 8.0 | 0.00 | 0.11 | 0.11 | 55 | 1018.3 |
| 20260831213226 | 87 | 156 | 3.0 | 5.0 | 0.00 | 0.11 | 0.11 | 54 | 1018.5 |
| 20260831212720 | 85 | 155 | 0.0 | 5.0 | 0.00 | 0.11 | 0.11 | 56 | 1018.7 |
| 20260831212217 | 86 | 91 | 4.0 | 8.0 | 0.00 | 0.11 | 0.11 | 55 | 1018.9 |
| 20260831211715 | 86 | 191 | 0.0 | 11.0 | 0.00 | 0.11 | 0.11 | 52 | 1019.0 |
| 20260831211211 | 88 | 153 | 1.0 | 7.0 | 0.00 | 0.11 | 0.11 | 55 | 1019.0 |
| 20260831210710 | 86 | 155 | 3.0 | 6.0 | 0.00 | 0.11 | 0.11 | 57 | 1018.9 |
| 20260831210207 | 86 | 92 | 2.0 | 5.0 | 0.00 | 0.11 | 0.11 | 57 | 1019.1 |
| 20260831205706 | 85 | 101 | 2.0 | 8.0 | 0.00 | 0.11 | 0.11 | 57 | 1019.2 |
| 20260831205202 | 85 | 64 | 6.0 | 9.0 | 0.00 | 0.11 | 0.11 | 55 | 1019.4 |
| 20260831204657 | 85 | 106 | 4.0 | 11.0 | 0.00 | 0.11 | 0.11 | 55 | 1019.3 |
| 20260831204155 | 85 | 128 | 0.0 | 6.0 | 0.00 | 0.11 | 0.11 | 58 | 1019.3 |
| 20260831203649 | 84 | 54 | 3.0 | 7.0 | 0.00 | 0.11 | 0.11 | 61 | 1019.5 |
| 20260831203144 | 84 | 179 | 5.0 | 9.0 | 0.00 | 0.11 | 0.11 | 60 | 1019.5 |
| 20260831202643 | 84 | 96 | 3.0 | 8.0 | 0.00 | 0.11 | 0.11 | 63 | 1019.6 |
| 20260831202137 | 84 | 166 | 5.0 | 9.0 | 0.00 | 0.11 | 0.11 | 65 | 1019.6 |
| 20260831201637 | 84 | 210 | 2.0 | 4.0 | 0.00 | 0.11 | 0.11 | 67 | 1019.7 |
| 20260831201131 | 83 | 213 | 3.0 | 9.0 | 0.00 | 0.11 | 0.11 | 68 | 1019.9 |
| 20260831200627 | 83 | 193 | 3.0 | 7.0 | 0.00 | 0.11 | 0.11 | 69 | 1019.8 |
| 20260831200122 | 83 | 41 | 2.0 | 7.0 | 0.00 | 0.11 | 0.11 | 65 | 1019.8 |
| 20260831195617 | 83 | 160 | 2.0 | 6.0 | 0.00 | 0.11 | 0.11 | 67 | 1019.8 |
| 20260831195112 | 82 | 109 | 5.0 | 12.0 | 0.00 | 0.11 | 0.11 | 67 | 1019.6 |
| 20260831194608 | 82 | 109 | 2.0 | 7.0 | 0.00 | 0.11 | 0.11 | 66 | 1019.7 |
| 20260831194102 | 81 | 169 | 4.0 | 9.0 | 0.00 | 0.11 | 0.11 | 65 | 1019.8 |
| 20260831193557 | 81 | 7 | 1.0 | 7.0 | 0.00 | 0.11 | 0.11 | 66 | 1019.9 |
| 20260831193057 | 81 | 150 | 1.0 | 7.0 | 0.00 | 0.11 | 0.11 | 68 | 1020.0 |
| 20260831192552 | 81 | 227 | 0.0 | 6.0 | 0.00 | 0.11 | 0.11 | 70 | 1019.8 |
| 20260831192048 | 81 | 149 | 2.0 | 5.0 | 0.00 | 0.11 | 0.11 | 69 | 1020.0 |
| 20260831191543 | 81 | 167 | 1.0 | 3.0 | 0.00 | 0.11 | 0.11 | 69 | 1020.2 |
| 20260831191039 | 80 | 170 | 2.0 | 7.0 | 0.00 | 0.11 | 0.11 | 68 | 1020.1 |
| 20260831190535 | 80 | 72 | 1.0 | 7.0 | 0.00 | 0.11 | 0.11 | 68 | 1020.0 |
| 20260831190033 | 80 | 163 | 4.0 | 6.0 | 0.00 | 0.11 | 0.11 | 68 | 1020.2 |
| 20260831185529 | 79 | 141 | 2.0 | 4.0 | 0.00 | 0.11 | 0.11 | 70 | 1019.9 |
| 20260831185024 | 79 | 180 | 2.0 | 4.0 | 0.00 | 0.11 | 0.11 | 72 | 1020.0 |
| 20260831184519 | 79 | 166 | 4.0 | 5.0 | 0.00 | 0.11 | 0.11 | 72 | 1020.1 |
| 20260831184014 | 79 | 188 | 2.0 | 5.0 | 0.00 | 0.11 | 0.11 | 72 | 1020.2 |
| 20260831183513 | 79 | 134 | 2.0 | 5.0 | 0.00 | 0.11 | 0.11 | 73 | 1020.0 |
| 20260831183013 | 79 | 217 | 0.0 | 4.0 | 0.00 | 0.11 | 0.11 | 73 | 1020.2 |
| 20260831182508 | 79 | 166 | 2.0 | 7.0 | 0.00 | 0.11 | 0.11 | 74 | 1020.1 |
| 20260831182003 | 79 | 86 | 5.0 | 7.0 | 0.00 | 0.11 | 0.11 | 76 | 1020.3 |
| 20260831181458 | 79 | 143 | 0.0 | 6.0 | 0.00 | 0.11 | 0.11 | 78 | 1019.9 |
| 20260831180953 | 78 | 155 | 1.0 | 4.0 | 0.00 | 0.11 | 0.11 | 79 | 1020.1 |
| 20260831180453 | 78 | 185 | 2.0 | 5.0 | 0.00 | 0.11 | 0.11 | 80 | 1020.3 |
| 20260831175952 | 78 | 156 | 2.0 | 3.0 | 0.00 | 0.11 | 0.11 | 81 | 1020.5 |
| 20260831175449 | 78 | 324 | 0.0 | 6.0 | 0.00 | 0.11 | 0.11 | 81 | 1020.5 |
| 20260831174944 | 78 | 158 | 0.0 | 3.0 | 0.00 | 0.11 | 0.11 | 82 | 1020.5 |
| 20260831174440 | 78 | 348 | 1.0 | 5.0 | 0.00 | 0.11 | 0.11 | 82 | 1020.7 |
| 20260831173938 | 78 | 67 | 2.0 | 5.0 | 0.00 | 0.11 | 0.11 | 82 | 1020.6 |
| 20260831173438 | 78 | 77 | 1.0 | 2.0 | 0.00 | 0.11 | 0.11 | 84 | 1020.7 |
| 20260831172934 | 77 | 89 | 2.0 | 5.0 | 0.00 | 0.11 | 0.11 | 85 | 1021.0 |
| 20260831172430 | 78 | 103 | 0.0 | 2.0 | 0.00 | 0.11 | 0.11 | 85 | 1020.9 |
| 20260831171929 | 77 | 59 | 1.0 | 5.0 | 0.00 | 0.11 | 0.11 | 86 | 1020.8 |
| 20260831171425 | 77 | 73 | 2.0 | 4.0 | 0.00 | 0.11 | 0.11 | 87 | 1020.7 |
| 20260831170922 | 77 | 240 | 0.0 | 3.0 | 0.00 | 0.11 | 0.11 | 88 | 1020.7 |
| 20260831170418 | 76 | 135 | 0.0 | 6.0 | 0.00 | 0.11 | 0.11 | 88 | 1020.4 |
| 20260831165914 | 76 | 89 | 5.0 | 6.0 | 0.00 | 0.11 | 0.11 | 89 | 1020.4 |
| 20260831165410 | 76 | 86 | 3.0 | 7.0 | 0.00 | 0.11 | 0.11 | 89 | 1020.4 |
| 20260831164906 | 75 | 94 | 5.0 | 8.0 | 0.00 | 0.11 | 0.11 | 90 | 1020.4 |
| 20260831164402 | 75 | 76 | 3.0 | 5.0 | 0.00 | 0.11 | 0.11 | 91 | 1020.4 |
| 20260831163857 | 75 | 87 | 3.0 | 5.0 | 0.00 | 0.11 | 0.11 | 91 | 1020.3 |
| 20260831163353 | 74 | 86 | 4.0 | 7.0 | 0.00 | 0.11 | 0.11 | 92 | 1020.2 |
| 20260831162851 | 74 | 72 | 5.0 | 7.0 | 0.02 | 0.11 | 0.11 | 92 | 1020.4 |
| 20260831162347 | 74 | 53 | 3.0 | 7.0 | 0.02 | 0.11 | 0.11 | 92 | 1020.3 |
| 20260831161845 | 73 | 73 | 3.0 | 8.0 | 0.00 | 0.11 | 0.11 | 92 | 1020.1 |
| 20260831161342 | 73 | 62 | 3.0 | 7.0 | 0.00 | 0.11 | 0.11 | 92 | 1020.1 |
| 20260831160838 | 73 | 21 | 4.0 | 5.0 | 0.02 | 0.11 | 0.11 | 92 | 1020.3 |
| 20260831160337 | 73 | 31 | 2.0 | 7.0 | 0.05 | 0.11 | 0.11 | 92 | 1019.9 |
| 20260831155832 | 73 | 18 | 3.0 | 4.0 | 0.07 | 0.11 | 0.11 | 92 | 1020.0 |
| 20260831155332 | 73 | 23 | 1.0 | 4.0 | 0.09 | 0.10 | 0.10 | 91 | 1020.0 |
| 20260831154828 | 72 | 71 | 3.0 | 7.0 | 0.09 | 0.09 | 0.09 | 91 | 1020.1 |
| 20260831154324 | 73 | 118 | 1.0 | 5.0 | 0.05 | 0.08 | 0.08 | 90 | 1020.1 |
| 20260831153823 | 73 | 79 | 5.0 | 11.0 | 0.05 | 0.07 | 0.07 | 90 | 1019.8 |
| 20260831153319 | 73 | 99 | 3.0 | 9.0 | 0.09 | 0.07 | 0.07 | 89 | 1020.0 |
| 20260831152815 | 74 | 68 | 3.0 | 5.0 | 0.12 | 0.07 | 0.07 | 88 | 1020.0 |
| 20260831152310 | 74 | 96 | 3.0 | 5.0 | 0.12 | 0.06 | 0.06 | 88 | 1020.0 |
| 20260831151805 | 74 | 80 | 2.0 | 5.0 | 0.14 | 0.05 | 0.05 | 86 | 1020.1 |
| 20260831151304 | 75 | 50 | 2.0 | 2.0 | 0.12 | 0.04 | 0.04 | 85 | 1020.3 |
| 20260831150759 | 75 | 201 | 2.0 | 5.0 | 0.09 | 0.02 | 0.02 | 83 | 1020.2 |
| 20260831150255 | 76 | 160 | 3.0 | 7.0 | 0.05 | 0.01 | 0.01 | 82 | 1020.3 |
| 20260831145754 | 76 | 74 | 2.0 | 5.0 | 0.02 | 0.01 | 0.01 | 81 | 1020.1 |
| 20260831145250 | 76 | 70 | 3.0 | 7.0 | 0.00 | 0.00 | 0.00 | 80 | 1019.8 |
| 20260831144746 | 76 | 189 | 1.0 | 8.0 | 0.00 | 0.00 | 0.00 | 80 | 1019.9 |
| 20260831144242 | 77 | 53 | 2.0 | 5.0 | 0.00 | 0.00 | 0.00 | 79 | 1019.8 |
| 20260831143742 | 77 | 149 | 4.0 | 7.0 | 0.00 | 0.00 | 0.00 | 79 | 1019.4 |
| 20260831143237 | 77 | 158 | 4.0 | 5.0 | 0.00 | 0.00 | 0.00 | 79 | 1019.5 |
| 20260831142732 | 77 | 95 | 1.0 | 4.0 | 0.00 | 0.00 | 0.00 | 79 | 1019.5 |
| 20260831142228 | 77 | 149 | 1.0 | 8.0 | 0.00 | 0.00 | 0.00 | 78 | 1019.5 |
| 20260831141727 | 77 | 76 | 2.0 | 5.0 | 0.00 | 0.00 | 0.00 | 78 | 1019.1 |
| 20260831141222 | 77 | 60 | 1.0 | 6.0 | 0.00 | 0.00 | 0.00 | 76 | 1018.9 |
| 20260831140722 | 78 | 168 | 2.0 | 9.0 | 0.02 | 0.00 | 0.00 | 76 | 1019.0 |
| 20260831140216 | 78 | 262 | 2.0 | 10.0 | 0.00 | 0.00 | 0.00 | 75 | 1019.0 |
| 20260831135714 | 79 | 87 | 2.0 | 9.0 | 0.00 | 0.00 | 0.00 | 71 | 1018.6 |
| 20260831135210 | 80 | 131 | 2.0 | 5.0 | 0.00 | 0.00 | 0.00 | 68 | 1018.4 |
| 20260831134706 | 80 | 134 | 1.0 | 3.0 | 0.00 | 0.00 | 0.00 | 68 | 1018.3 |
| 20260831134201 | 80 | 156 | 3.0 | 8.0 | 0.00 | 0.00 | 0.00 | 67 | 1017.9 |
| 20260831133700 | 79 | 169 | 2.0 | 7.0 | 0.00 | 0.00 | 0.00 | 68 | 1017.7 |
| 20260831133155 | 79 | 155 | 4.0 | 6.0 | 0.00 | 0.00 | 0.00 | 71 | 1017.7 |
| 20260831132651 | 79 | 160 | 2.0 | 3.0 | 0.00 | 0.00 | 0.00 | 71 | 1017.7 |
| 20260831132150 | 79 | 142 | 2.0 | 4.0 | 0.00 | 0.00 | 0.00 | 71 | 1017.6 |
| 20260831131645 | 79 | 216 | 1.0 | 4.0 | 0.00 | 0.00 | 0.00 | 71 | 1017.6 |
| 20260831131142 | 79 | 126 | 1.0 | 5.0 | 0.00 | 0.00 | 0.00 | 71 | 1017.2 |
| 20260831130636 | 79 | 162 | 0.0 | 4.0 | 0.00 | 0.00 | 0.00 | 72 | 1017.0 |
| 20260831130132 | 78 | 115 | 2.0 | 3.0 | 0.00 | 0.00 | 0.00 | 74 | 1017.1 |
| 20260831125630 | 78 | 127 | 1.0 | 5.0 | 0.00 | 0.00 | 0.00 | 73 | 1017.0 |
| 20260831125126 | 78 | 150 | 3.0 | 5.0 | 0.00 | 0.00 | 0.00 | 73 | 1017.0 |
| 20260831124622 | 79 | 161 | 3.0 | 5.0 | 0.00 | 0.00 | 0.00 | 72 | 1016.9 |
| 20260831124118 | 79 | 146 | 0.0 | 3.0 | 0.00 | 0.00 | 0.00 | 72 | 1016.8 |
| 20260831123618 | 79 | 208 | 0.0 | 5.0 | 0.00 | 0.00 | 0.00 | 72 | 1016.9 |
| 20260831123117 | 79 | 143 | 4.0 | 7.0 | 0.00 | 0.00 | 0.00 | 71 | 1017.1 |
| 20260831122617 | 79 | 202 | 2.0 | 5.0 | 0.00 | 0.00 | 0.00 | 71 | 1016.7 |
| 20260831122113 | 79 | 183 | 1.0 | 4.0 | 0.00 | 0.00 | 0.00 | 71 | 1016.6 |
| 20260831121612 | 79 | 165 | 1.0 | 3.0 | 0.00 | 0.00 | 0.00 | 71 | 1016.6 |
| 20260831121109 | 79 | 107 | 0.0 | 3.0 | 0.00 | 0.00 | 0.00 | 71 | 1016.7 |
| 20260831120609 | 79 | 160 | 1.0 | 3.0 | 0.00 | 0.00 | 0.00 | 72 | 1016.3 |
| 20260831120104 | 79 | 199 | 0.0 | 2.0 | 0.00 | 0.00 | 0.00 | 72 | 1016.4 |
| 20260831115559 | 79 | 223 | 0.0 | 2.0 | 0.00 | 0.00 | 0.00 | 71 | 1016.2 |
| 20260831115055 | 79 | 141 | 0.0 | 3.0 | 0.00 | 0.00 | 0.00 | 71 | 1016.5 |
| 20260831114553 | 79 | 230 | 0.0 | 1.0 | 0.00 | 0.00 | 0.00 | 71 | 1016.2 |
| 20260831114048 | 79 | 215 | 1.0 | 3.0 | 0.00 | 0.00 | 0.00 | 69 | 1016.1 |
| 20260831113548 | 80 | 290 | 0.0 | 1.0 | 0.00 | 0.00 | 0.00 | 67 | 1016.1 |
| 20260831113044 | 79 | 156 | 0.0 | 1.0 | 0.00 | 0.00 | 0.00 | 66 | 1016.1 |
| 20260831112543 | 79 | 149 | 1.0 | 2.0 | 0.00 | 0.00 | 0.00 | 65 | 1016.2 |
| 20260831112038 | 79 | 230 | 0.0 | 1.0 | 0.00 | 0.00 | 0.00 | 64 | 1015.8 |
| 20260831111534 | 80 | 166 | 0.0 | 1.0 | 0.00 | 0.00 | 0.00 | 63 | 1016.1 |
| 20260831111029 | 80 | 83 | 2.0 | 5.0 | 0.00 | 0.00 | 0.00 | 62 | 1016.0 |
| 20260831110525 | 80 | 104 | 3.0 | 4.0 | 0.00 | 0.00 | 0.00 | 63 | 1015.8 |
| 20260831110020 | 80 | 93 | 2.0 | 11.0 | 0.00 | 0.00 | 0.00 | 63 | 1015.6 |
| 20260831105519 | 80 | 92 | 7.0 | 7.0 | 0.00 | 0.00 | 0.00 | 63 | 1015.4 |
| 20260831105014 | 80 | 72 | 3.0 | 6.0 | 0.00 | 0.00 | 0.00 | 63 | 1015.4 |
| 20260831104510 | 80 | 77 | 2.0 | 5.0 | 0.00 | 0.00 | 0.00 | 62 | 1015.3 |
| 20260831104006 | 80 | 77 | 4.0 | 6.0 | 0.00 | 0.00 | 0.00 | 61 | 1014.8 |
| 20260831103501 | 80 | 88 | 3.0 | 5.0 | 0.00 | 0.00 | 0.00 | 61 | 1014.9 |
| 20260831102956 | 81 | 31 | 2.0 | 4.0 | 0.00 | 0.00 | 0.00 | 60 | 1014.9 |
| 20260831102450 | 80 | 12 | 4.0 | 5.0 | 0.00 | 0.00 | 0.00 | 61 | 1014.7 |
| 20260831101945 | 80 | 86 | 3.0 | 4.0 | 0.00 | 0.00 | 0.00 | 61 | 1014.8 |
| 20260831101440 | 80 | 70 | 2.0 | 4.0 | 0.00 | 0.00 | 0.00 | 61 | 1014.7 |
| 20260831100937 | 80 | 96 | 2.0 | 5.0 | 0.00 | 0.00 | 0.00 | 61 | 1014.8 |
| 20260831100432 | 80 | 55 | 0.0 | 0.0 | 0.00 | 0.00 | 0.00 | 62 | 1014.6 |
| 20260831095927 | 80 | 114 | 1.0 | 2.0 | 0.00 | 0.00 | 0.00 | 61 | 1014.9 |
| 20260831095426 | 80 | 92 | 2.0 | 4.0 | 0.00 | 0.00 | 0.00 | 61 | 1014.7 |
| 20260831094921 | 80 | 111 | 2.0 | 4.0 | 0.00 | 0.00 | 0.00 | 61 | 1014.9 |
| 20260831094418 | 80 | 85 | 7.0 | 8.0 | 0.00 | 0.00 | 0.00 | 62 | 1015.2 |
| 20260831093914 | 80 | 32 | 0.0 | 3.0 | 0.00 | 0.00 | 0.00 | 63 | 1015.3 |
| 20260831093408 | 80 | 65 | 2.0 | 6.0 | 0.00 | 0.00 | 0.00 | 62 | 1015.3 |
| 20260831092905 | 80 | 80 | 3.0 | 6.0 | 0.00 | 0.00 | 0.00 | 63 | 1015.2 |
| 20260831092400 | 80 | 36 | 3.0 | 7.0 | 0.00 | 0.00 | 0.00 | 64 | 1015.2 |
| 20260831091855 | 80 | 81 | 7.0 | 12.0 | 0.00 | 0.00 | 0.00 | 65 | 1015.3 |
| 20260831091350 | 80 | 84 | 3.0 | 7.0 | 0.00 | 0.00 | 0.00 | 64 | 1015.4 |
| 20260831090846 | 80 | 33 | 4.0 | 16.0 | 0.00 | 0.00 | 0.00 | 65 | 1015.7 |
| 20260831090336 | 80 | 80 | 5.0 | 13.0 | 0.00 | 0.00 | 0.00 | 67 | 1015.4 |
| 20260831085832 | 80 | 102 | 5.0 | 13.0 | 0.00 | 0.00 | 0.00 | 68 | 1015.4 |
| 20260831085327 | 80 | 91 | 5.0 | 13.0 | 0.00 | 0.00 | 0.00 | 67 | 1015.4 |
| 20260831084827 | 80 | 70 | 6.0 | 8.0 | 0.00 | 0.00 | 0.00 | 67 | 1015.3 |
| 20260831084323 | 80 | 61 | 4.0 | 8.0 | 0.00 | 0.00 | 0.00 | 67 | 1015.4 |
| 20260831083819 | 80 | 75 | 9.0 | 12.0 | 0.00 | 0.00 | 0.00 | 67 | 1015.5 |
| 20260831083314 | 80 | 109 | 0.0 | 5.0 | 0.00 | 0.00 | 0.00 | 69 | 1015.6 |
| 20260831082813 | 80 | 102 | 2.0 | 5.0 | 0.00 | 0.00 | 0.00 | 68 | 1015.6 |
| 20260831082308 | 80 | 79 | 5.0 | 7.0 | 0.00 | 0.00 | 0.00 | 68 | 1015.4 |
| 20260831081803 | 80 | 33 | 3.0 | 4.0 | 0.00 | 0.00 | 0.00 | 67 | 1015.7 |
| 20260831081259 | 81 | 10 | 2.0 | 6.0 | 0.00 | 0.00 | 0.00 | 67 | 1015.8 |
| 20260831080754 | 81 | 66 | 4.0 | 7.0 | 0.00 | 0.00 | 0.00 | 66 | 1016.1 |
| 20260831080249 | 81 | 29 | 4.0 | 8.0 | 0.00 | 0.00 | 0.00 | 66 | 1016.0 |
| 20260831075745 | 81 | 27 | 5.0 | 14.0 | 0.00 | 0.00 | 0.00 | 65 | 1015.7 |
| 20260831075235 | 81 | 50 | 4.0 | 9.0 | 0.00 | 0.00 | 0.00 | 66 | 1015.8 |
| 20260831074734 | 81 | 16 | 4.0 | 7.0 | 0.00 | 0.00 | 0.00 | 68 | 1015.5 |
| 20260831074228 | 81 | 28 | 4.0 | 6.0 | 0.00 | 0.00 | 0.00 | 68 | 1015.5 |
| 20260831073724 | 81 | 8 | 3.0 | 7.0 | 0.00 | 0.00 | 0.00 | 68 | 1015.4 |
| 20260831073223 | 81 | 0 | 2.0 | 6.0 | 0.00 | 0.00 | 0.00 | 68 | 1015.4 |
| 20260831072718 | 81 | 349 | 5.0 | 10.0 | 0.00 | 0.00 | 0.00 | 67 | 1015.6 |
| 20260831072215 | 81 | 326 | 7.0 | 9.0 | 0.00 | 0.00 | 0.00 | 66 | 1015.6 |
| 20260831071715 | 81 | 313 | 3.0 | 11.0 | 0.00 | 0.00 | 0.00 | 66 | 1015.6 |
| 20260831071209 | 81 | 333 | 4.0 | 13.0 | 0.00 | 0.00 | 0.00 | 66 | 1015.7 |
| 20260831070708 | 82 | 313 | 4.0 | 9.0 | 0.00 | 0.00 | 0.00 | 66 | 1015.5 |
| 20260831070202 | 82 | 329 | 8.0 | 11.0 | 0.00 | 0.00 | 0.00 | 66 | 1015.0 |
| 20260831065702 | 82 | 6 | 3.0 | 11.0 | 0.00 | 0.09 | 0.09 | 65 | 1014.8 |
| 20260831065200 | 83 | 308 | 7.0 | 11.0 | 0.00 | 0.09 | 0.09 | 63 | 1014.8 |
| 20260831064655 | 84 | 19 | 4.0 | 10.0 | 0.00 | 0.09 | 0.09 | 60 | 1015.1 |
| 20260831064151 | 84 | 353 | 7.0 | 11.0 | 0.00 | 0.09 | 0.09 | 59 | 1014.8 |
| 20260831063647 | 84 | 4 | 6.0 | 12.0 | 0.00 | 0.09 | 0.09 | 59 | 1014.5 |
| 20260831063142 | 85 | 23 | 5.0 | 8.0 | 0.00 | 0.09 | 0.09 | 56 | 1014.8 |
| 20260831062643 | 85 | 343 | 4.0 | 9.0 | 0.00 | 0.09 | 0.09 | 56 | 1014.6 |
| 20260831062142 | 85 | 356 | 3.0 | 7.0 | 0.00 | 0.09 | 0.09 | 56 | 1014.3 |
| 20260831061640 | 85 | 16 | 4.0 | 13.0 | 0.00 | 0.09 | 0.09 | 56 | 1014.4 |
| 20260831061136 | 85 | 16 | 3.0 | 5.0 | 0.00 | 0.09 | 0.09 | 54 | 1014.0 |
| 20260831060633 | 84 | 97 | 3.0 | 3.0 | 0.00 | 0.09 | 0.09 | 56 | 1013.9 |
| 20260831060132 | 86 | 79 | 3.0 | 4.0 | 0.00 | 0.09 | 0.09 | 54 | 1013.9 |
| 20260831055631 | 86 | 78 | 0.0 | 2.0 | 0.00 | 0.09 | 0.09 | 47 | 1013.6 |
| 20260831055127 | 86 | 234 | 1.0 | 5.0 | 0.00 | 0.09 | 0.09 | 47 | 1013.5 |
| 20260831054626 | 86 | 269 | 5.0 | 7.0 | 0.00 | 0.09 | 0.09 | 48 | 1013.5 |
| 20260831054126 | 85 | 233 | 3.0 | 13.0 | 0.00 | 0.09 | 0.09 | 51 | 1013.7 |
| 20260831053621 | 83 | 248 | 5.0 | 8.0 | 0.00 | 0.09 | 0.09 | 55 | 1013.8 |
| 20260831053120 | 82 | 234 | 9.0 | 11.0 | 0.00 | 0.09 | 0.09 | 60 | 1014.1 |
| 20260831052618 | 82 | 242 | 4.0 | 10.0 | 0.00 | 0.09 | 0.09 | 60 | 1014.3 |
| 20260831052118 | 80 | 259 | 7.0 | 12.0 | 0.05 | 0.09 | 0.09 | 67 | 1014.1 |
| 20260831051616 | 77 | 250 | 4.0 | 8.0 | 0.17 | 0.09 | 0.09 | 79 | 1014.3 |
| 20260831051115 | 76 | 233 | 3.0 | 6.0 | 0.38 | 0.08 | 0.08 | 82 | 1015.0 |
| 20260831050610 | 77 | 258 | 5.0 | 9.0 | 0.24 | 0.05 | 0.05 | 80 | 1015.0 |
| 20260831050109 | 78 | 229 | 3.0 | 13.0 | 0.05 | 0.02 | 0.02 | 76 | 1015.0 |
| 20260831045608 | 78 | 221 | 7.0 | 11.0 | 0.07 | 0.01 | 0.01 | 78 | 1015.1 |
| 20260831045103 | 78 | 205 | 4.0 | 12.0 | 0.05 | 0.01 | 0.01 | 77 | 1015.5 |
| 20260831044558 | 79 | 221 | 9.0 | 17.0 | 0.00 | 0.00 | 0.00 | 73 | 1015.4 |